EXPRESS AMU-3

Last updated on Sat Jun 21 2025 00:02:47 GMT+0000 (Coordinated Universal Time)

1 50002U 21123B 25170.96856082 -.00000310 00000+0 00000+0 0 9998 2 50002 0.0244 323.9864 0000479 349.9498 46.0599 1.00271209 3402
UTC large
Height (km)
Speed (km/s)
/
Latitude / Longitude
Inclination (degrees)
Orbital Period (minutes)
Azimuth
Elevation
Range (km)
Doppler Factor

Next 0 passes for location: London (51.5072 / 0.1276)

Sorry there are no passes over London.